カタログに戻る

DELTA 1 DEB

運用中SSO
NORAD 14908·DEBRIS·🇺🇸 United States

打ち上げ Mar 5, 1978 から Vandenberg Space Force Base

Loading…

次のパス (今後24時間)

TLE

最新Source: Space-Track

元期: Sep 14, 2026, 09:41 UTC

1 14908U 78026GH  26257.40359287  .00001166  00000-0  57513-3 0  9993
2 14908  99.0678 322.9239 0088431 274.7879  84.3201 14.17514954284262

AllMySatでDELTA 1 DEBをリアルタイム追跡

Download on the App Store